Regional Weather Roundup
Issued by NWS

Home | Current Version | Previous Version | Graphics & Text | Print | Product List | Glossary On
Versions: 1 2 3 4 5 6 7 8 9 10 11 12 13 14 15 16 17 18 19 20 21 22 23 24 25 26 27 28 29 30 31 32 33 34 35 36 37 38 39 40 41 42 43 44 45 46 47 48 49 50
000
ASUS45 KPSR 052210
RWRAZ

ARIZONA HOURLY REGIONAL WEATHER ROUNDUP
NATIONAL WEATHER SERVICE PHOENIX AZ
300 PM MST FRI FEB 05 2016

NOTE: FAIR INDICATES FEW OR NO CLOUDS BELOW 12,000 FEET WITH NO
SIGNIFICANT WEATHER AND/OR OBSTRUCTIONS TO VISIBILITY.

AZZ001>003-036-052300-
NORTHWEST ARIZONA

CITY           SKY/WX    TMP DP  RH WIND       PRES   REMARKS
BULLHEAD CITY  SUNNY     63  25  23 N25G31    30.38S
KINGMAN        SUNNY     55  20  25 N14       30.38F
$$

AZZ004>008-015-016-018-052300-
NORTH CENTRAL ARIZONA

CITY           SKY/WX    TMP DP  RH WIND       PRES   REMARKS
GRAND CANYON   SUNNY     36  15  42 NE10      30.44S WCI  28
WILLIAMS       SUNNY     37  10  32 NE13      30.44S WCI  29
PRESCOTT       SUNNY     49  13  23 E7        30.37S
FLAGSTAFF      SUNNY     32  12  43 E17       30.39F WCI  21
PAYSON         SUNNY     46   9  21 E9G20     30.37R
PAGE           SUNNY     41  22  46 NE7       30.49F
$$

AZZ009>014-017-052300-
NORTHEAST ARIZONA

CITY           SKY/WX    TMP DP  RH WIND       PRES   REMARKS
WINSLOW        SUNNY     44  14  29 VRB3      30.45F
SAINT JOHNS    SUNNY     42  10  27 N3        30.40S
WINDOW ROCK    SUNNY     40   0  18 VRB3      30.39S
SHOW LOW       SUNNY     36  10  35 NE14G28   30.40S WCI  27
$$

AZZ023-052300-
GREATER PHOENIX AREA

CITY           SKY/WX    TMP DP  RH WIND       PRES   REMARKS
PHOENIX        MOSUNNY   68  16  13 CALM      30.28F
BUCKEYE        SUNNY     66  19  16 SE8       30.32F
GLENDALE       MOSUNNY   68  19  15 NE6       30.31F
LUKE AFB       SUNNY     68  18  15 E12       30.28F
DEER VALLEY    SUNNY     66  15  14 VRB3      30.29S
SCOTTSDALE     SUNNY     66  13  12 NE12      30.30F
MESA-FALCON    MOSUNNY  N/A N/A N/A N9        30.29F
MESA-GATEWAY   MOSUNNY   64  14  14 NE10G21   30.30F
CHANDLER       MOSUNNY   66  16  14 N12       30.29F
$$

AZZ027-028-052300-
SOUTHWEST MARICOPA COUNTY AND PINAL COUNTY

CITY           SKY/WX    TMP DP  RH WIND       PRES   REMARKS
CASA GRANDE    SUNNY     64  19  17 N7        30.29F
GILA BEND      MOSUNNY   66  17  15 N8        30.29F
$$

AZZ503-504-507>509-052300-
SOUTHEAST ARIZONA

CITY           SKY/WX    TMP DP  RH WIND       PRES   REMARKS
TUCSON         SUNNY     64  12  13 NW6       30.28S
DAVIS-MONTHAN  SUNNY     61  13  15 N6        30.25F
RYAN FIELD     SUNNY     64  19  17 N6        30.28F
NOGALES        SUNNY     66   7  10 N12G20    30.23S
SIERRA VISTA   SUNNY     58   7  13 VRB6      30.29S
DOUGLAS        SUNNY     60  10  14 VRB5      30.28S
SAFFORD        SUNNY     57  14  18 VRB7      30.29F
$$

AZZ020-021-025-026-031-052300-
SOUTHWEST ARIZONA

CITY           SKY/WX    TMP DP  RH WIND       PRES   REMARKS
YUMA           SUNNY     71  22  15 N10       30.30F
$$

CAZ031-033-041-043-047-048-061-052300-
SOUTHERN CALIFORNIA

CITY           SKY/WX    TMP DP  RH WIND       PRES   REMARKS
DOWNTOWN L.A.  SUNNY     74  19  12 VRB3      30.25F
L.A. AIRPORT   MOSUNNY   75  24  15 W8        30.26F
SAN DIEGO      SUNNY     73  31  21 NW13      30.23F
BURBANK        SUNNY     73  20  13 CALM      30.25F
ONTARIO        MOSUNNY   75  19  12 NE13      30.26F
RIVERSIDE      SUNNY     73  20  13 N12G22    30.28F
PALM SPRINGS   SUNNY     73  20  13 VRB5      30.34F
EL CENTRO NAS  SUNNY     71  20  14 NW5       30.33F
IMPERIAL       SUNNY     71  23  16 N5        30.31F
BLYTHE         SUNNY     70  21  15 N9        30.33F
NEEDLES        SUNNY     66  22  18 N18G28    30.37F
$$

NVZ020-UTZ003-052300-
SOUTHERN NEVADA-UTAH

CITY           SKY/WX    TMP DP  RH WIND       PRES   REMARKS
LAS VEGAS      MOSUNNY   58  20  22 NE9       30.41F
SALT LAKE CITY MOSUNNY   36  24  62 S3        30.53S
$$

NMZ009-TXZ055-052300-
NEW MEXICO-WEST TEXAS

CITY           SKY/WX    TMP DP  RH WIND       PRES   REMARKS
ALBUQUERQUE    SUNNY     42   5  21 NW15      30.36S
EL PASO        SUNNY     54   6  14 N20       30.31R
$$


........................KEY........................
SKY/WX - SKY CONDITION/WEATHER
TMP    - TEMPERATURE IN FAHRENHEIT
DP     - DEW POINT IN FAHRENHEIT
RH     - RELATIVE HUMIDITY IN PERCENT
WIND   - DIRECTION AND SPEED IN MILES PER HOUR (MPH)
VRB    - VARIABLE WIND DIRECTION
PRES   - MEAN SEA LEVEL PRESSURE IN INCHES OF MERCURY
         F - FALLING PRESSURE   R - RISING PRESSURE
         S - STEADY PRESSURE
VSB    - VISIBILITY IN MILES
HX     - HEAT INDEX IN FAHRENHEIT
WCI    - WIND CHILL INDEX IN FAHRENHEIT
TC     - TEMPERATURE IN CELSIUS WHICH IS ALSO KNOWN AS
         TEMPERATURE IN CENTIGRADE
AFB    - AIR FORCE BASE
         LUKE AFB IS LUKE AIR FORCE BASE
         DAVIS-MONTHAN IS DAVIS-MONTHAN AIR FORCE BASE
NAS    - NAVAL AIR STATION
         EL CENTRO NAS IS EL CENTRO NAVAL AIR STATION
N/A    - NOT AVAILABLE




USA.gov is the U.S. government's official web portal to all federal, state and local government web resources and services.